Вернуться в каталог

STARLINK-4100

АктивенСвязьVLEO
NORAD 53144·PAYLOAD·🇺🇸 United States

Запущен Jul 17, 2022 с Cape Canaveral Space Force Station

Loading…

Ближайшие Пролёты (ближайшие 24 часа)

TLE

СвежийSource: CelesTrak SupGP

Эпоха: Sep 14, 2026, 20:58 UTC

1 53144C 22083N   26257.87409722 -.00007156  00000+0 -21713-3 0  2577
2 53144  53.1594  30.3069 0001172  78.0265  79.7364 15.33553648    16

Отслеживайте STARLINK-4100 в реальном времени с AllMySat

Download on the App Store